sat.trackr.live / text

‹ back to catalog

2026-132G

NORAD 69676 · 2026-132G

UNKNOWN UNKNOWN UNKNOWN

§ Identity

Operator
Country
TBD
Launch date
2026-06-12
Launch site
TANSC
Launch vehicle
Mass (kg)
RCS (m²)

External: N2YO · Heavens-Above · Gunter

§ Orbital elements

Epoch: 2026-07-08T10:26:01.192992Z

Period
95.50 min
Inclination
97.6875°
Eccentricity
0.0024591
Mean motion
15.07805957 rev/d
Perigee alt
525.9 km
Apogee alt
559.9 km
Semi-major
6,921.0 km
B*
4.2983e-4
RAAN
253.0023°
Arg perigee
224.5551°
Mean anomaly
135.3700°
Rev number
397

§ Raw data

2026-132G1 69676U 26132G   26189.43473603  .00006559  00000+0  42983-3 0  99972 69676  97.6875 253.0023 0024591 224.5551 135.3700 15.07805957  3973

JSON: /api/v1/satellites/69676 · /tle

For live sub-satellite position, see the globe view (requires WebGL).

§ Visibility from observer

Set your observer location to see the next 7 days of passes ≥ 10°. The values pass through the URL so the page stays shareable.

No JS? Fill the form by hand. The geolocation button needs JavaScript.